Location: Nairn
(57.5833°N, 3.8667°W)
Time: 18:53:40
(UTC+00:00)

Cosmos 1025 Rocket - Pass Details

Date: 07 August 2020
Orbit: 594 x 618 km, 82.5° (Epoch: 24 September)

Event Time Altitude Azimuth Distance (km) Brightness Sun altitude
Rises 01:27:14 0° 345° (NNW) 2,862 7.5 -14.8°
Reaches altitude 10° 01:29:29 10° 342° (NNW) 1,952 6.5 -14.7°
Maximum altitude 01:33:44 64° 262° (W) 667 3.1 -14.6°
Enters shadow 01:36:10 24° 187° (S) 1,239 4.0 -14.5°
